Wind_Speed
6 7 6 6 5 5 2 6 7 5 5 6 6 7 10 4 7 6 10 11 9 8 7 11 11 12 12 12 12 13 12 11 11 11 12 11 11 11 14 14 12 13 14 15 16 16 15 15 14
5 7 6 5 8 3 2 3 5 6 7 7 5 8 10 9 5 9 7 8 10 9 8 8 9 10 11 10 10 11 9 10 11 11 11 11 8 10 14 15 13 12 12 13 14 17 16 15 14
7 6 6 6 6 3 3 5 6 4 6 5 4 5 10 13 11 14 9 7 9 9 8 7 7 8 8 8 8 10 9 9 10 8 9 10 9 7 10 11 11 10 11 12 12 14 16 15 13
3 7 8 6 4 6 4 3 4 5 8 8 8 11 13 13 7 7 9 11 10 10 8 7 7 6 6 6 6 7 8 8 9 9 9 10 9 6 7 8 10 10 10 10 10 11 14 14 14
3 5 6 6 5 5 0 7 7 6 5 8 9 11 13 17 12 13 11 13 11 11 10 8 6 6 5 4 6 6 7 7 8 9 9 9 6 4 3 6 7 8 8 9 9 8 10 12 13
8 7 7 5 3 3 2 2 5 5 4 5 7 10 14 17 19 12 12 12 13 11 12 11 7 7 5 3 5 6 7 7 9 9 10 12 11 3 2 5 5 7 5 9 8 6 6 10 11
7 4 5 2 3 3 2 4 4 5 7 8 9 12 13 18 22 22 17 15 14 15 13 12 10 8 6 3 3 5 6 7 9 11 10 13 10 7 5 6 5 4 4 5 6 5 5 6 8
7 6 3 3 1 3 1 2 5 6 9 10 14 15 17 17 21 22 19 18 11 16 14 14 13 11 7 3 3 3 4 7 9 10 10 14 15 9 5 9 6 4 4 5 5 6 5 4 5
11 5 3 5 4 6 1 4 6 7 6 6 7 14 16 19 20 20 19 19 16 19 18 17 16 16 10 6 2 1 2 5 9 11 13 13 14 8 5 7 5 4 3 1 5 5 4 2 5
12 12 4 5 5 3 3 7 6 4 5 6 9 11 11 17 21 21 17 15 22 18 20 19 18 18 15 10 5 4 2 4 8 12 11 9 11 11 5 7 4 5 6 4 5 6 3 4 4
3 5 5 4 5 3 7 10 9 6 6 8 12 12 9 11 18 19 17 24 15 22 22 22 19 12 14 11 7 3 2 6 8 8 6 9 8 6 5 4 4 8 8 5 5 5 3 2 0
3 5 9 8 8 6 10 13 10 6 7 11 8 5 5 7 14 17 21 21 21 20 19 20 14 13 11 9 5 4 3 4 7 9 6 11 11 13 12 13 11 10 8 5 4 3 3 1 2
8 6 5 6 8 6 11 11 8 6 10 6 7 6 6 6 12 17 19 18 19 22 18 20 17 13 15 7 7 5 3 4 7 7 10 12 12 13 12 11 9 7 7 6 5 5 5 3 2
7 7 7 7 5 7 8 8 6 7 7 8 6 8 10 7 9 14 15 20 15 19 20 22 17 15 13 8 7 5 2 4 6 5 9 11 11 12 10 9 8 8 6 5 5 6 5 5 3
3 14 9 2 3 2 5 7 6 5 5 3 5 7 8 5 5 14 13 19 21 14 14 18 20 19 12 8 6 5 3 3 4 5 8 8 9 10 7 4 3 6 5 4 6 6 6 7 6
5 6 13 4 2 2 6 9 7 4 4 4 3 7 10 9 11 15 14 13 19 10 22 20 24 17 10 7 7 5 5 3 2 4 7 4 6 5 4 3 2 1 3 5 7 5 5 6 7
10 13 9 2 3 1 5 6 6 7 7 2 4 8 12 12 14 12 14 22 22 19 20 20 24 12 8 8 7 5 4 5 3 4 6 3 4 3 1 0 2 2 3 4 5 5 3 5 6
10 9 7 3 7 1 2 4 6 7 7 1 2 9 14 20 17 19 26 27 26 24 23 20 19 12 9 7 6 5 3 3 4 5 5 3 2 1 1 3 3 4 4 5 6 5 3 3 3
6 4 3 4 8 6 4 5 5 8 10 5 3 10 17 17 21 27 28 27 26 24 20 18 17 10 8 7 6 4 2 2 4 4 2 2 2 3 4 6 5 5 4 5 6 5 3 3 1
10 12 6 2 9 7 6 6 5 6 8 10 7 8 14 19 23 21 24 26 24 20 16 14 12 9 6 5 6 4 3 3 3 3 1 1 3 4 5 4 5 6 7 4 4 6 5 4 2
15 16 16 9 12 8 7 6 4 4 1 6 6 6 8 13 17 21 25 25 23 18 13 11 10 8 7 7 8 6 6 5 5 6 3 3 4 5 5 5 6 7 9 7 5 6 5 5 4
13 12 12 11 9 5 8 8 7 6 3 1 3 8 10 10 17 23 23 22 17 11 9 9 8 7 7 8 8 8 7 4 2 1 3 3 4 5 5 8 9 9 9 9 7 6 6 6 7
8 8 14 11 10 9 9 9 9 8 6 2 3 5 12 11 15 22 22 18 15 10 8 8 9 10 9 10 10 9 7 5 3 4 4 5 6 4 6 7 9 10 11 12 9 7 8 9 8
7 16 18 14 14 12 10 11 13 14 11 5 4 6 7 10 9 15 18 16 9 4 6 7 8 8 8 8 8 8 7 6 5 5 6 7 6 5 6 7 8 9 11 12 11 10 9 10 12
6 19 21 16 14 12 11 9 9 9 13 13 7 5 10 11 11 10 15 14 10 7 5 3 6 5 6 8 8 8 9 8 7 7 6 7 7 7 7 9 9 11 12 9 12 13 13 13 13
10 19 17 14 15 12 8 4 6 10 8 12 14 10 4 9 12 15 15 16 16 12 8 6 6 7 6 8 7 7 9 10 10 8 7 7 9 12 13 14 12 12 12 11 11 13 14 15 16
12 13 14 16 13 10 11 9 6 10 11 11 12 10 5 7 13 17 20 23 21 17 13 10 10 9 8 9 9 10 11 12 12 11 10 10 11 13 15 16 15 16 17 15 15 16 16 20 20
11 11 9 7 11 10 10 10 10 11 10 9 11 13 11 9 11 18 22 23 27 23 17 11 11 11 9 10 11 12 14 15 16 15 14 14 16 17 18 17 18 19 19 19 18 17 18 20 23
12 12 14 10 10 6 7 6 6 8 10 16 11 13 12 16 16 16 17 20 25 24 20 14 13 12 12 12 12 15 16 17 18 18 17 18 19 19 20 21 22 23 24 22 21 21 21 23 25
16 17 12 11 8 6 5 3 4 5 10 13 11 13 6 10 10 8 22 17 19 22 21 14 12 13 12 11 13 15 17 18 18 20 21 21 23 21 23 26 25 27 24 22 25 26 29 30 30
Wind_Direction
69 70 50 33 356 341 84 121 140 160 157 157 167 173 188 137 200 158 147 144 137 130 118 120 121 114 106 99 88 83 79 75 74 66 63 63 64 65 49 83 85 87 89 91 88 93 97 91 92
88 70 24 351 350 340 166 183 178 175 192 191 217 194 211 202 175 175 165 154 155 145 136 126 120 121 115 105 93 83 74 71 62 65 63 64 53 61 65 90 89 89 88 88 86 91 95 97 99
60 49 352 354 354 320 266 240 237 226 260 217 239 170 181 192 227 196 190 177 169 158 148 139 123 125 118 109 94 80 60 59 62 47 59 57 54 61 72 85 89 84 82 87 88 90 94 96 101
3 14 350 345 328 274 270 247 258 275 266 249 258 191 179 191 232 216 206 204 182 163 165 150 140 137 124 112 91 67 59 49 49 45 41 47 43 44 71 75 80 77 90 92 93 98 101 101 102
347 335 306 322 302 275 292 122 145 192 244 238 234 231 216 216 226 208 214 203 184 167 172 164 154 142 126 110 80 62 49 45 37 35 28 32 27 39 89 95 92 100 92 97 99 108 115 105 103
296 273 267 284 284 301 46 129 193 192 219 237 246 238 227 215 219 220 214 208 206 190 175 168 169 156 147 118 72 51 45 28 32 23 8 8 29 24 116 122 110 107 110 110 96 107 119 122 108
293 294 268 257 204 182 183 209 209 246 262 271 267 250 241 229 232 240 229 211 219 205 174 173 168 158 146 127 71 33 31 22 22 14 4 7 26 91 108 151 129 118 123 127 112 89 115 120 121
279 295 310 231 235 260 343 199 219 261 280 282 260 255 243 238 232 233 230 209 218 162 174 176 171 160 160 151 80 35 25 30 21 11 349 52 45 63 42 154 140 160 142 125 120 104 117 133 132
283 285 329 205 203 281 60 288 261 262 269 273 271 253 253 238 235 226 221 215 180 183 176 180 177 169 155 190 126 129 47 38 22 359 16 49 42 54 21 155 158 146 161 96 115 107 87 136 146
281 255 259 292 269 303 327 297 287 261 271 313 301 277 258 242 232 226 207 204 196 182 180 177 188 198 224 209 196 184 134 55 42 22 46 45 45 23 66 131 143 168 163 134 101 98 101 141 164
20 149 220 275 317 339 326 321 308 294 301 301 292 288 256 236 232 223 200 206 203 202 203 185 178 189 186 204 193 178 142 69 51 53 59 74 48 55 70 139 144 149 150 138 117 97 88 41 96
251 237 250 266 295 326 331 325 318 312 308 317 317 309 282 242 222 212 196 198 193 197 197 188 190 166 189 169 177 177 126 83 62 56 68 82 73 74 81 101 101 129 148 135 99 73 35 47 1
250 280 236 236 272 299 321 323 326 348 1 34 43 2 322 262 208 197 191 191 171 185 182 171 161 174 175 174 179 156 128 90 68 60 99 89 69 72 82 88 94 107 102 85 59 39 32 48 70
255 219 171 251 307 278 311 326 339 13 35 85 57 41 28 356 211 188 177 182 185 187 173 163 162 161 156 178 171 145 127 74 81 81 77 76 69 68 76 82 90 102 91 74 37 17 39 66 57
323 196 220 315 274 346 338 344 358 27 48 116 13 62 27 35 143 165 176 179 178 178 200 169 161 153 162 166 159 151 98 51 91 111 102 89 76 80 78 75 83 91 77 59 24 31 36 32 28
49 124 199 167 245 5 8 359 11 43 36 358 72 73 53 67 126 154 159 174 173 155 173 152 148 148 162 152 159 154 92 114 133 128 113 109 87 102 92 69 50 69 67 29 24 42 25 20 14
71 96 98 171 254 2 26 354 21 38 35 1 105 79 66 72 114 110 133 138 148 159 142 134 150 153 167 172 163 135 122 135 120 125 110 112 108 91 105 310 285 305 349 350 1 13 6 13 20
69 88 82 201 234 221 61 17 22 25 45 4 118 101 82 86 103 110 118 132 134 138 144 146 155 172 167 158 163 143 126 102 105 120 122 143 133 147 243 264 250 269 281 322 342 347 342 355 19
66 60 249 49 196 160 113 74 26 42 67 78 138 126 109 92 99 119 122 126 134 139 145 148 161 169 165 150 160 140 161 144 129 135 130 162 220 220 226 231 242 264 288 320 336 320 311 302 318
73 55 42 39 162 145 127 103 95 47 59 69 91 144 132 130 128 130 137 135 136 143 151 163 167 171 174 171 172 164 176 166 148 145 149 198 223 228 221 240 282 299 302 314 334 321 293 252 231
85 71 53 74 140 137 129 106 87 77 355 69 70 138 138 149 153 146 145 146 152 157 161 165 165 179 191 204 190 177 189 181 179 151 168 234 252 263 257 272 294 303 310 325 319 321 297 251 245
94 90 65 94 107 84 93 89 79 57 13 296 117 124 157 153 155 143 140 146 147 161 162 163 172 183 198 216 210 204 214 209 225 196 215 253 297 289 293 289 299 306 312 314 321 307 302 267 261
96 76 94 91 113 87 78 70 61 55 40 344 268 149 149 144 157 153 150 150 143 144 163 174 187 189 198 209 213 218 226 230 248 258 261 294 318 305 314 312 303 302 304 303 314 316 298 280 270
110 98 105 104 109 108 100 79 44 32 29 358 217 218 200 168 160 168 157 153 154 155 159 172 174 188 195 209 218 232 242 249 253 274 288 288 303 317 316 318 310 317 300 281 289 295 300 309 296
154 125 113 110 113 116 99 73 51 24 10 11 358 259 226 209 184 177 192 193 200 213 215 202 184 193 220 218 224 245 255 259 271 284 296 296 287 289 285 285 292 307 323 284 270 280 289 290 293
160 136 119 99 116 128 111 68 109 66 34 17 2 339 320 234 222 205 203 210 221 229 227 221 216 214 224 242 246 254 268 273 271 279 303 304 296 284 279 284 295 303 310 301 272 275 279 284 284
199 171 140 113 121 105 91 70 108 41 43 32 15 4 351 230 241 232 217 213 215 222 222 219 218 220 230 247 248 253 265 270 270 273 281 290 287 287 289 292 301 301 302 299 290 281 278 290 290
210 206 210 160 130 120 82 70 90 48 34 13 357 355 344 321 284 256 235 225 219 215 221 230 228 232 237 249 263 269 273 276 275 277 284 288 287 284 286 292 291 290 289 290 288 282 280 282 281
208 218 208 180 154 159 107 79 57 60 44 13 352 357 348 330 304 288 246 228 236 225 218 233 237 243 248 252 263 274 277 283 286 286 286 287 282 284 289 287 286 286 286 287 295 295 286 278 278
208 201 223 206 200 147 102 96 21 42 359 10 352 347 352 336 321 266 247 239 226 220 223 227 228 238 247 257 270 272 274 280 288 292 292 289 289 294 290 287 284 283 285 283 281 281 287 280 281
Height
5906 5905 5906 5905 5908 5906 5905 5906 5906 5907 5907 5907 5907 5908 5909 5911 5911 5915 5913 5915 5917 5918 5919 5920 5922 5921 5920 5920 5919 5918 5918 5918 5918 5918 5918 5918 5917 5916 5915 5915 5915 5916 5915 5915 5914 5914 5914 5915 5915
5907 5907 5907 5906 5908 5906 5906 5906 5906 5906 5907 5907 5907 5907 5908 5911 5911 5912 5914 5915 5917 5917 5919 5921 5922 5922 5922 5921 5921 5919 5920 5920 5921 5919 5919 5919 5920 5919 5918 5917 5917 5917 5917 5916 5917 5916 5916 5918 5919
5909 5908 5908 5907 5906 5906 5906 5906 5906 5907 5907 5908 5908 5907 5908 5911 5909 5911 5913 5914 5916 5918 5920 5921 5922 5923 5923 5923 5922 5921 5921 5922 5921 5921 5920 5921 5920 5920 5920 5920 5920 5919 5919 5919 5920 5919 5919 5919 5920
5909 5909 5908 5907 5905 5904 5906 5906 5906 5906 5906 5907 5908 5909 5910 5910 5911 5911 5912 5913 5915 5917 5920 5921 5922 5923 5924 5923 5923 5922 5922 5922 5922 5922 5922 5921 5921 5921 5921 5921 5921 5920 5921 5921 5922 5922 5922 5921 5922
5910 5910 5909 5907 5907 5905 5905 5904 5903 5904 5904 5905 5905 5907 5909 5909 5909 5910 5911 5912 5914 5916 5918 5920 5921 5922 5923 5923 5924 5923 5924 5923 5922 5922 5922 5920 5920 5920 5921 5921 5922 5922 5923 5923 5924 5925 5925 5924 5923
5910 5911 5910 5910 5908 5906 5905 5904 5904 5904 5905 5905 5905 5906 5908 5908 5908 5909 5910 5913 5915 5916 5917 5919 5921 5922 5923 5923 5924 5924 5924 5923 5921 5921 5920 5918 5918 5919 5920 5921 5922 5922 5924 5924 5925 5926 5927 5926 5926
5909 5911 5911 5910 5908 5907 5906 5904 5905 5904 5905 5905 5904 5903 5905 5906 5906 5906 5909 5910 5913 5914 5917 5918 5920 5922 5923 5923 5924 5924 5923 5922 5921 5921 5920 5918 5917 5917 5918 5920 5921 5923 5924 5925 5926 5927 5928 5929 5929
5908 5911 5910 5908 5907 5907 5907 5906 5905 5904 5904 5902 5900 5901 5901 5902 5902 5904 5907 5910 5911 5912 5915 5918 5918 5921 5923 5924 5925 5925 5924 5923 5922 5921 5919 5919 5919 5918 5919 5920 5921 5924 5925 5927 5927 5928 5929 5930 5931
5907 5909 5908 5907 5907 5907 5906 5906 5904 5902 5900 5899 5898 5896 5897 5898 5899 5900 5903 5907 5910 5911 5914 5917 5918 5921 5923 5924 5925 5925 5925 5924 5923 5922 5919 5920 5920 5920 5919 5920 5922 5925 5927 5928 5928 5930 5930 5931 5931
5904 5906 5907 5906 5905 5906 5905 5904 5902 5901 5899 5897 5895 5893 5893 5893 5894 5897 5901 5904 5908 5910 5913 5914 5918 5920 5923 5926 5927 5926 5926 5925 5924 5922 5920 5921 5921 5920 5919 5920 5922 5925 5927 5928 5929 5929 5930 5931 5932
5903 5904 5906 5906 5904 5903 5904 5903 5900 5898 5897 5895 5894 5891 5889 5889 5891 5894 5899 5902 5906 5908 5911 5913 5917 5921 5924 5926 5928 5927 5926 5925 5924 5923 5922 5921 5921 5920 5920 5921 5922 5924 5926 5927 5928 5929 5930 5931 5932
5903 5904 5905 5906 5904 5904 5903 5902 5899 5897 5895 5892 5890 5887 5886 5887 5888 5892 5896 5900 5903 5906 5909 5914 5918 5922 5924 5926 5927 5928 5927 5925 5925 5925 5924 5923 5922 5923 5922 5923 5925 5925 5926 5926 5928 5930 5931 5931 5930
5902 5903 5904 5905 5905 5903 5903 5901 5899 5896 5893 5891 5889 5888 5886 5886 5887 5890 5893 5898 5901 5904 5909 5913 5918 5921 5924 5925 5927 5928 5928 5927 5926 5926 5925 5924 5924 5925 5925 5926 5926 5927 5927 5928 5928 5930 5930 5930 5930
5901 5901 5904 5905 5904 5904 5904 5901 5898 5895 5894 5891 5891 5888 5887 5885 5887 5890 5893 5898 5901 5906 5910 5913 5918 5921 5923 5925 5927 5928 5928 5927 5927 5927 5925 5925 5926 5926 5927 5928 5929 5928 5928 5929 5929 5929 5929 5929 5930
5899 5900 5903 5905 5905 5904 5903 5901 5898 5896 5895 5893 5892 5889 5889 5888 5887 5889 5893 5899 5903 5908 5910 5914 5918 5921 5923 5926 5927 5928 5928 5928 5928 5927 5926 5927 5927 5928 5929 5929 5930 5929 5929 5930 5929 5929 5929 5929 5929
5898 5898 5901 5904 5904 5904 5903 5901 5898 5897 5896 5896 5894 5891 5890 5889 5889 5892 5895 5898 5904 5907 5912 5915 5919 5921 5923 5926 5927 5928 5928 5929 5929 5928 5927 5928 5928 5929 5930 5930 5931 5931 5930 5931 5930 5929 5929 5929 5929
5899 5899 5901 5903 5903 5904 5904 5902 5899 5899 5898 5898 5897 5894 5892 5890 5891 5893 5894 5896 5903 5909 5914 5917 5920 5923 5926 5927 5927 5928 5930 5930 5929 5929 5928 5928 5928 5929 5930 5930 5932 5932 5931 5931 5930 5930 5930 5930 5929
5902 5903 5903 5903 5905 5905 5904 5903 5901 5901 5900 5900 5899 5898 5895 5894 5895 5896 5898 5902 5908 5912 5916 5919 5923 5925 5927 5928 5928 5928 5930 5930 5930 5929 5928 5929 5929 5929 5929 5930 5931 5931 5930 5930 5930 5930 5929 5930 5929
5906 5905 5904 5904 5903 5904 5905 5903 5903 5902 5901 5902 5901 5901 5898 5898 5902 5903 5904 5908 5912 5916 5919 5921 5923 5925 5927 5927 5928 5928 5929 5930 5930 5929 5929 5929 5929 5929 5930 5929 5930 5930 5929 5929 5929 5929 5929 5929 5928
5906 5906 5904 5902 5903 5905 5905 5905 5904 5904 5904 5904 5904 5904 5903 5903 5904 5908 5911 5913 5916 5918 5920 5923 5925 5926 5926 5927 5928 5929 5930 5930 5930 5930 5929 5929 5929 5929 5928 5929 5929 5929 5929 5929 5928 5927 5927 5928 5927
5908 5908 5906 5905 5904 5906 5907 5907 5907 5906 5906 5907 5906 5907 5907 5908 5908 5909 5911 5915 5917 5920 5922 5923 5925 5926 5927 5928 5929 5930 5931 5931 5931 5929 5929 5929 5929 5928 5928 5928 5929 5929 5929 5928 5927 5927 5926 5927 5927
5911 5910 5909 5906 5907 5908 5908 5910 5909 5909 5908 5908 5908 5908 5909 5909 5910 5911 5912 5915 5918 5921 5922 5923 5925 5926 5927 5929 5930 5931 5932 5932 5930 5929 5929 5929 5929 5929 5928 5928 5928 5928 5928 5928 5928 5927 5926 5926 5926
5912 5910 5910 5910 5910 5910 5911 5912 5911 5911 5909 5909 5910 5910 5911 5912 5913 5913 5913 5916 5919 5922 5924 5925 5926 5927 5928 5928 5929 5931 5932 5932 5931 5930 5930 5929 5928 5929 5928 5928 5928 5928 5928 5928 5928 5927 5926 5925 5925
5912 5911 5910 5913 5912 5913 5913 5913 5910 5909 5910 5909 5908 5909 5912 5913 5914 5916 5916 5917 5919 5922 5924 5926 5927 5928 5928 5928 5929 5930 5930 5930 5930 5930 5930 5930 5929 5928 5927 5927 5927 5926 5926 5926 5926 5926 5926 5926 5924
5912 5911 5911 5913 5913 5914 5913 5914 5912 5911 5909 5908 5908 5908 5908 5910 5913 5915 5917 5918 5920 5921 5923 5925 5926 5927 5928 5928 5928 5929 5929 5929 5929 5929 5929 5929 5928 5926 5926 5926 5925 5924 5924 5923 5924 5924 5924 5924 5924
5914 5912 5912 5913 5914 5915 5915 5915 5914 5914 5912 5910 5906 5904 5906 5909 5910 5913 5914 5916 5918 5919 5921 5923 5924 5926 5927 5928 5928 5928 5928 5928 5928 5928 5928 5927 5927 5925 5924 5923 5923 5922 5921 5922 5921 5920 5920 5920 5920
5915 5914 5913 5914 5915 5915 5916 5915 5915 5914 5913 5911 5909 5907 5905 5906 5907 5909 5910 5912 5914 5917 5919 5921 5923 5924 5925 5926 5926 5926 5926 5926 5926 5926 5926 5925 5925 5924 5922 5921 5921 5920 5919 5918 5917 5917 5916 5915 5913
5913 5914 5915 5914 5916 5916 5915 5915 5915 5915 5912 5911 5909 5907 5904 5904 5903 5904 5908 5911 5912 5914 5917 5920 5921 5922 5923 5924 5925 5925 5924 5924 5924 5924 5924 5923 5921 5919 5919 5919 5917 5915 5913 5911 5910 5910 5910 5909 5907
5911 5910 5912 5913 5914 5915 5915 5916 5915 5915 5913 5911 5909 5908 5903 5901 5900 5899 5901 5906 5910 5914 5916 5918 5920 5921 5922 5923 5924 5925 5924 5923 5922 5921 5920 5919 5917 5916 5916 5914 5912 5910 5907 5907 5908 5906 5903 5900 5898
5908 5909 5911 5913 5914 5913 5913 5914 5913 5913 5912 5911 5909 5907 5905 5902 5898 5895 5897 5902 5905 5909 5912 5915 5916 5919 5920 5920 5921 5921 5921 5920 5918 5917 5916 5914 5912 5912 5910 5907 5905 5902 5902 5901 5899 5898 5897 5894 5891